[[{"header":{"parameterUnit":"m.s-1","parameterCategory":1,"la1":30.2992,"la2":30.254,"lo1":-89.0895,"lo2":-89.0443,"dy":0.0025,"dx":0.0025,"nx":19,"ny":19,"refTime":"2026-03-25T21:00:00:Z","depth":0,"parameterNumber":2,"parameterNumberName":"U-component_of_WINDS"},"data":[0,0,0,-5.3972,-5.3974,-5.4069,-5.4069,-5.4209,-5.421,0,0,0,0,0,0,0,0,0,0,0,-5.3955,-5.3956,-5.3971,-5.3974,-5.4069,-5.4069,-5.4209,-5.421,0,0,0,0,0,0,0,0,0,0,0,-5.3954,-5.3956,-5.3957,-5.3974,-5.4069,-5.4069,-5.4208,-5.413,0,0,0,0,0,0,0,0,0,0,-5.4035,-5.403,-5.3955,-5.3957,-5.3975,-5.4069,-5.4069,-5.4126,-5.4135,-5.4174,0,-5.4212,0,-5.4214,-5.4221,-5.4222,0,0,0,-5.3965,-5.4022,-5.4038,-5.3958,-5.3976,-5.4069,-5.4023,-5.4131,-5.4141,-5.4186,-5.4214,-5.4219,-5.4216,-5.4222,-5.4223,-5.4483,-5.4485,0,0,-5.396,-5.3977,-5.4032,-5.4046,-5.4033,-5.402,-5.4027,-5.4136,-5.4167,-5.4215,-5.4222,-5.4219,-5.4223,-5.4224,-5.4482,-5.4484,0,0,0,-5.3951,-5.3974,-5.3987,-5.404,-5.4056,-5.4023,-5.403,-5.4163,-5.4165,-5.4223,-5.422,-5.4224,-5.4226,-5.448,-5.4483,-5.4581,0,0,0,-5.3947,-5.3968,-5.3985,-5.3996,-5.4055,-5.4111,-5.4054,-5.4158,-5.417,-5.422,-5.4224,-5.4227,-5.4478,-5.4481,-5.4574,-5.4622,0,0,0,-5.3944,-5.3968,-5.3986,-5.3997,-5.4039,-5.4108,-5.4117,-5.416,-5.4169,-5.4222,-5.4228,-5.4477,-5.4481,-5.4568,-5.4612,-5.4696,0,0,0,-5.3946,-5.4069,-5.3988,-5.4125,-5.4038,-5.417,-5.4116,-5.4213,-5.427,-5.4225,-5.4478,-5.4482,-5.4566,-5.4606,-5.469,-5.4768,-5.4803,0,0,-5.4111,-5.4089,-5.4169,-5.41,-5.425,-5.4154,-5.4319,-5.4354,-5.4342,-5.4437,-5.4443,-5.4576,-5.4612,-5.4695,-5.4997,-5.5024,0,0,0,-5.4227,-5.4285,-5.4321,-5.4378,-5.4411,-5.4443,-5.4451,-5.4466,-5.4546,-5.4395,-5.463,-5.465,-5.4698,-5.4735,-5.4758,-5.4798,-5.4501,-5.45,-5.45,-5.4481,-5.4464,-5.4595,-5.4591,-5.4648,-5.466,-5.4704,-5.4724,-5.4686,-5.4744,-5.4769,-5.4955,-5.4999,-5.5016,-5.5058,-5.4812,-5.4812,-5.4813,-5.4813,-5.4719,-5.4797,-5.4752,-5.4863,-5.4845,-5.4937,-5.4956,-5.4928,-5.5011,-5.4932,-5.4974,-5.4886,-5.5047,-5.5083,-5.482,-5.4819,-5.4818,-5.4817,-5.4817,-5.488,-5.4914,-5.4933,-5.5019,-5.5087,-5.5079,-5.5164,-5.5144,-5.5126,-5.5167,-5.5194,-5.5192,-5.5186,-5.5182,-5.5183,-5.5184,-5.5184,-5.5185,-5.5185,-5.5038,-5.5056,-5.513,-5.5182,-5.5219,-5.5265,-5.5284,-5.532,-5.5354,-5.5333,-5.5333,-5.5291,-5.5068,-5.501,-5.5195,-5.5193,-5.5192,-5.5191,-5.519,-5.5278,-5.5223,-5.5337,-5.5376,-5.5437,-5.5507,-5.5485,-5.5561,-5.5588,-5.5631,-5.5583,-5.5423,-5.5398,-5.5379,-5.5331,-5.5587,-5.5587,-5.5587,-5.5587,-5.5412,-5.5401,-5.5516,-5.5579,-5.5639,-5.5632,-5.5764,-5.5783,-5.5792,-5.5809,-5.577,-5.5707,-5.5689,-5.5675,-5.5649,-5.5604,-5.5924,-5.5924,-5.5925,-5.5559,-5.5554,-5.5668,-5.568,-5.5729,-5.5772,-5.5895,-5.597,-5.5969,-5.5938,-5.5821,-5.5807,-5.5704,-5.5672,-5.5631,-5.5593,-5.551,0,0]},{"header":{"parameterUnit":"m.s-1","parameterCategory":1,"la1":30.2992,"la2":30.254,"lo1":-89.0895,"lo2":-89.0443,"dy":0.0025,"dx":0.0025,"nx":19,"ny":19,"refTime":"2026-03-25T21:00:00:Z","depth":0,"parameterNumber":3,"parameterNumberName":"V-component_of_WINDS"},"data":[0,0,0,3.0556,3.0554,3.0466,3.0465,3.0332,3.033,0,0,0,0,0,0,0,0,0,0,0,3.0575,3.0574,3.0556,3.0553,3.0466,3.0465,3.0332,3.033,0,0,0,0,0,0,0,0,0,0,0,3.0575,3.0574,3.0573,3.0553,3.0466,3.0465,3.0332,3.0405,0,0,0,0,0,0,0,0,0,0,3.0493,3.0505,3.0574,3.0573,3.0553,3.0466,3.0465,3.0408,3.04,3.0365,0,3.0336,0,3.0332,3.0321,3.032,0,0,0,3.0557,3.0512,3.0496,3.0572,3.0552,3.0466,3.0506,3.0404,3.0394,3.0353,3.0334,3.033,3.033,3.032,3.0319,3.0118,3.0117,0,0,3.0562,3.0553,3.0502,3.0489,3.0508,3.0509,3.0503,3.0398,3.0375,3.0334,3.0327,3.0327,3.0319,3.0318,3.012,3.0118,0,0,0,3.0573,3.0556,3.0543,3.0494,3.0481,3.0506,3.05,3.0379,3.0376,3.0326,3.0326,3.0318,3.0316,3.0121,3.0119,3.0059,0,0,0,3.0576,3.0563,3.0545,3.0538,3.0482,3.043,3.0483,3.0383,3.0372,3.0326,3.0318,3.0315,3.0122,3.012,3.0063,3.003,0,0,0,3.0582,3.0564,3.055,3.0538,3.0501,3.0432,3.0423,3.0381,3.0371,3.032,3.0314,3.0123,3.012,3.0067,3.0036,2.9975,0,0,0,3.0585,3.0493,3.0549,3.0447,3.0502,3.0398,3.0424,3.0345,3.0294,3.0317,3.0122,3.0119,3.0068,3.004,2.9979,2.9921,2.9898,0,0,3.0464,3.0478,3.0419,3.0467,3.0352,3.0412,3.0286,3.0244,3.0243,3.0159,3.0154,3.0062,3.0037,2.9976,2.9769,2.975,0,0,0,3.0378,3.0335,3.0307,3.0262,3.0232,3.0203,3.0183,3.0167,3.0098,3.02,3.0025,3.001,2.9974,2.9947,2.993,2.99,3.0107,3.0107,3.0108,3.0191,3.0203,3.0105,3.0106,3.0062,3.0045,3.0008,2.9983,3.0002,2.9961,2.9934,2.9808,2.9776,2.9764,2.9732,2.9906,2.9906,2.9906,2.9906,3.0014,2.9955,2.999,2.9908,2.9919,2.9847,2.9827,2.9844,2.9776,2.9828,2.9797,2.9851,2.9743,2.9715,2.9901,2.9902,2.9903,2.9903,2.9903,2.9891,2.9865,2.9854,2.9792,2.9742,2.9745,2.9681,2.9692,2.97,2.967,2.9643,2.9644,2.9645,2.9658,2.9657,2.9657,2.9657,2.9656,2.9656,2.9767,2.9757,2.9705,2.967,2.9644,2.9611,2.9596,2.9568,2.954,2.9552,2.9552,2.9573,2.9732,2.9771,2.9649,2.965,2.9651,2.9652,2.9652,2.9579,2.9625,2.9544,2.9519,2.948,2.943,2.9448,2.9392,2.9371,2.9338,2.9369,2.9486,2.9498,2.9511,2.9542,2.9369,2.9369,2.9369,2.9369,2.9473,2.9484,2.9406,2.9365,2.9326,2.9336,2.924,2.9228,2.922,2.9207,2.9235,2.9279,2.9292,2.9296,2.9314,2.9343,2.9122,2.9122,2.9122,2.9357,2.9366,2.9284,2.9286,2.9257,2.9231,2.9142,2.9089,2.9089,2.9112,2.9196,2.9207,2.9278,2.9301,2.9321,2.9348,2.9403,0,0]}]]